| time (UTC) | temp C | wind direction | speed KPH | gust KPH | rain 1hr cm | rain 24hr cm | rain mn cm | humidity % | barometer mb |
| 20260509104546 | 14 | 40 | 3.2 | 8.0 | 0.00 | 0.00 | 0.00 | 55 | 1019.3 |
| 20260509103047 | 14 | 34 | 4.8 | 14.5 | 0.00 | 0.00 | 0.00 | 54 | 1019.3 |
| 20260509101551 | 14 | 76 | 8.0 | 12.9 | 0.00 | 0.00 | 0.00 | 55 | 1019.3 |
| 20260509100043 | 13 | 101 | 3.2 | 17.7 | 0.00 | 0.00 | 0.00 | 53 | 1019.4 |
| 20260509094544 | 14 | 156 | 6.4 | 14.5 | 0.00 | 0.03 | 0.00 | 52 | 1019.4 |
| 20260509093043 | 14 | 156 | 8.0 | 16.1 | 0.00 | 0.03 | 0.00 | 52 | 1019.4 |
| 20260509091539 | 14 | 216 | 1.6 | 9.7 | 0.00 | 0.03 | 0.00 | 54 | 1019.4 |
| 20260509090036 | 13 | 133 | 3.2 | 6.4 | 0.00 | 0.03 | 0.00 | 55 | 1019.5 |
| 20260509084532 | 12 | 115 | 1.6 | 4.8 | 0.00 | 0.03 | 0.00 | 62 | 1019.6 |
| 20260509083028 | 12 | 115 | 1.6 | 4.8 | 0.00 | 0.03 | 0.00 | 78 | 1019.6 |
| 20260509081532 | 11 | 115 | 3.2 | 6.4 | 0.00 | 0.03 | 0.00 | 81 | 1019.7 |
| 20260509080026 | 11 | 81 | 3.2 | 6.4 | 0.00 | 0.03 | 0.00 | 80 | 1019.6 |
| 20260509074524 | 12 | 92 | 4.8 | 9.7 | 0.00 | 0.03 | 0.00 | 78 | 1019.5 |
| 20260509073023 | 12 | 165 | 3.2 | 8.0 | 0.00 | 0.03 | 0.00 | 80 | 1019.5 |
| 20260509071520 | 11 | 48 | 0.0 | 3.2 | 0.00 | 0.03 | 0.00 | 82 | 1019.5 |
| 20260509070017 | 11 | 111 | 1.6 | 4.8 | 0.00 | 0.03 | 0.00 | 82 | 1019.5 |
| 20260509064514 | 10 | 111 | 0.0 | 6.4 | 0.00 | 0.03 | 0.00 | 84 | 1019.5 |
| 20260509063010 | 10 | 15 | 1.6 | 4.8 | 0.00 | 0.03 | 0.00 | 85 | 1019.4 |
| 20260509061508 | 10 | 16 | 1.6 | 6.4 | 0.00 | 0.03 | 0.00 | 86 | 1019.4 |
| 20260509060010 | 9 | 331 | 3.2 | 4.8 | 0.00 | 0.03 | 0.00 | 87 | 1019.4 |
| 20260509054507 | 9 | 331 | 1.6 | 4.8 | 0.00 | 0.03 | 0.00 | 89 | 1019.4 |
| 20260509053007 | 9 | 331 | 1.6 | 4.8 | 0.00 | 0.03 | 0.00 | 91 | 1019.4 |
| 20260509051506 | 8 | 330 | 1.6 | 4.8 | 0.00 | 0.03 | 0.00 | 91 | 1019.3 |
| 20260509050004 | 8 | 330 | 1.6 | 4.8 | 0.00 | 0.03 | 0.00 | 92 | 1019.2 |
| 20260509044504 | 8 | 330 | 1.6 | 4.8 | 0.00 | 0.03 | 0.00 | 92 | 1019.1 |
| 20260509043002 | 8 | 330 | 0.0 | 3.2 | 0.00 | 0.03 | 0.00 | 92 | 1019.0 |
| 20260509041503 | 8 | 330 | 0.0 | 0.0 | 0.00 | 0.03 | 0.00 | 92 | 1018.9 |
| 20260509040001 | 8 | 330 | 0.0 | 0.0 | 0.00 | 0.03 | 0.00 | 92 | 1019.0 |
| 20260509034504 | 8 | 330 | 0.0 | 4.8 | 0.00 | 0.03 | 0.00 | 92 | 1019.0 |
| 20260509033001 | 8 | 14 | 0.0 | 0.0 | 0.00 | 0.03 | 0.00 | 92 | 1019.1 |
| 20260509031600 | 8 | 14 | 0.0 | 0.0 | 0.00 | 0.03 | 0.00 | 93 | 1019.1 |
| 20260509030059 | 8 | 14 | 0.0 | 1.6 | 0.00 | 0.03 | 0.00 | 93 | 1019.1 |
| 20260509024558 | 8 | 14 | 1.6 | 4.8 | 0.00 | 0.03 | 0.00 | 93 | 1019.1 |
| 20260509023057 | 9 | 14 | 0.0 | 3.2 | 0.00 | 0.03 | 0.00 | 92 | 1019.1 |
| 20260509021555 | 9 | 14 | 0.0 | 4.8 | 0.00 | 0.03 | 0.00 | 92 | 1019.1 |
| 20260509020053 | 9 | 14 | 1.6 | 3.2 | 0.00 | 0.03 | 0.00 | 92 | 1019.1 |
| 20260509014551 | 9 | 14 | 0.0 | 3.2 | 0.00 | 0.03 | 0.00 | 91 | 1019.0 |
| 20260509013055 | 9 | 14 | 0.0 | 4.8 | 0.00 | 0.03 | 0.00 | 91 | 1019.0 |
| 20260509011548 | 9 | 14 | 1.6 | 3.2 | 0.00 | 0.03 | 0.00 | 89 | 1019.0 |
| 20260509010045 | 10 | 14 | 0.0 | 3.2 | 0.00 | 0.03 | 0.00 | 88 | 1018.9 |
| 20260509004556 | 10 | 14 | 0.0 | 1.6 | 0.00 | 0.03 | 0.00 | 87 | 1018.8 |
| 20260509003044 | 10 | 14 | 0.0 | 3.2 | 0.00 | 0.03 | 0.00 | 86 | 1018.9 |
| 20260509001550 | 10 | 15 | 0.0 | 0.0 | 0.00 | 0.03 | 0.00 | 85 | 1019.0 |
| 20260509000043 | 10 | 15 | 1.6 | 4.8 | 0.00 | 0.03 | 0.00 | 86 | 1019.1 |
| 20260508234542 | 10 | 15 | 0.0 | 3.2 | 0.00 | 0.03 | 0.00 | 87 | 1019.1 |
| 20260508233040 | 10 | 14 | 0.0 | 0.0 | 0.00 | 0.03 | 0.00 | 87 | 1019.1 |
| 20260508231539 | 10 | 14 | 0.0 | 0.0 | 0.00 | 0.03 | 0.00 | 87 | 1019.2 |
| 20260508230039 | 10 | 15 | 0.0 | 0.0 | 0.00 | 0.03 | 0.00 | 87 | 1019.2 |
| 20260508224547 | 10 | 15 | 0.0 | 3.2 | 0.00 | 0.03 | 0.00 | 88 | 1019.1 |
| 20260508223135 | 10 | 15 | 0.0 | 1.6 | 0.00 | 0.03 | 0.00 | 88 | 1019.1 |
| 20260508221536 | 10 | 15 | 1.6 | 3.2 | 0.00 | 0.03 | 0.00 | 88 | 1019.1 |
| 20260508220033 | 10 | 15 | 1.6 | 4.8 | 0.00 | 0.03 | 0.00 | 88 | 1019.1 |
| 20260508214550 | 10 | 14 | 0.0 | 3.2 | 0.00 | 0.03 | 0.03 | 88 | 1019.1 |
| 20260508213033 | 10 | 14 | 0.0 | 3.2 | 0.00 | 0.03 | 0.03 | 89 | 1019.2 |
| 20260508211530 | 10 | 14 | 1.6 | 3.2 | 0.00 | 0.03 | 0.03 | 89 | 1019.2 |
| 20260508210033 | 10 | 14 | 1.6 | 3.2 | 0.00 | 0.03 | 0.03 | 89 | 1019.2 |
| 20260508204534 | 10 | 14 | 1.6 | 3.2 | 0.00 | 0.03 | 0.03 | 89 | 1019.1 |
| 20260508203028 | 10 | 14 | 0.0 | 3.2 | 0.00 | 0.03 | 0.03 | 89 | 1019.1 |
| 20260508201527 | 11 | 14 | 0.0 | 3.2 | 0.00 | 0.03 | 0.03 | 88 | 1019.0 |
| 20260508200030 | 11 | 14 | 1.6 | 1.6 | 0.00 | 0.03 | 0.03 | 87 | 1019.0 |
| 20260508194525 | 11 | 14 | 0.0 | 1.6 | 0.00 | 0.05 | 0.03 | 85 | 1018.9 |
| 20260508193024 | 11 | 14 | 0.0 | 1.6 | 0.00 | 0.05 | 0.03 | 84 | 1018.9 |
| 20260508191524 | 11 | 14 | 0.0 | 0.0 | 0.00 | 0.05 | 0.03 | 82 | 1018.8 |
| 20260508190044 | 11 | 14 | 0.0 | 1.6 | 0.00 | 0.05 | 0.03 | 82 | 1018.7 |
| 20260508184530 | 11 | 14 | 1.6 | 3.2 | 0.00 | 0.18 | 0.03 | 80 | 1018.7 |
| 20260508183033 | 11 | 14 | 1.6 | 4.8 | 0.00 | 0.18 | 0.03 | 80 | 1018.6 |
| 20260508181522 | 11 | 14 | 1.6 | 4.8 | 0.00 | 0.18 | 0.03 | 79 | 1018.5 |
| 20260508180021 | 12 | 15 | 3.2 | 4.8 | 0.00 | 0.18 | 0.03 | 77 | 1018.3 |
| 20260508150036 | 12 | 43 | 3.2 | 8.0 | 0.00 | 0.53 | 0.03 | 73 | 1018.1 |
| 20260508144540 | 12 | 150 | 1.6 | 8.0 | 0.00 | 0.58 | 0.03 | 73 | 1018.2 |
| 20260508143035 | 12 | 53 | 3.2 | 8.0 | 0.00 | 0.58 | 0.03 | 74 | 1018.2 |
| 20260508141538 | 12 | 110 | 3.2 | 6.4 | 0.00 | 0.58 | 0.03 | 73 | 1018.3 |
| 20260508140033 | 12 | 9 | 4.8 | 8.0 | 0.00 | 0.58 | 0.03 | 74 | 1018.3 |
| 20260508134535 | 12 | 39 | 3.2 | 8.0 | 0.00 | 0.58 | 0.03 | 75 | 1018.4 |
| 20260508133031 | 11 | 65 | 3.2 | 8.0 | 0.00 | 0.58 | 0.03 | 76 | 1018.4 |
| 20260508131530 | 11 | 84 | 3.2 | 14.5 | 0.00 | 0.58 | 0.03 | 76 | 1018.5 |
| 20260508130034 | 11 | 59 | 6.4 | 12.9 | 0.00 | 0.58 | 0.03 | 78 | 1018.6 |
| 20260508124527 | 11 | 46 | 4.8 | 9.7 | 0.00 | 0.61 | 0.03 | 76 | 1018.7 |
| 20260508123026 | 11 | 86 | 4.8 | 12.9 | 0.00 | 0.61 | 0.03 | 76 | 1018.7 |
| 20260508121525 | 11 | 45 | 6.4 | 11.3 | 0.00 | 0.61 | 0.03 | 78 | 1018.7 |
| 20260508120024 | 11 | 49 | 6.4 | 11.3 | 0.00 | 0.61 | 0.03 | 78 | 1018.8 |
| 20260508114523 | 11 | 79 | 6.4 | 8.0 | 0.00 | 0.61 | 0.03 | 76 | 1018.7 |
| 20260508113023 | 11 | 55 | 3.2 | 8.0 | 0.00 | 0.61 | 0.03 | 77 | 1018.7 |
| 20260508111520 | 11 | 44 | 4.8 | 8.0 | 0.00 | 0.61 | 0.03 | 77 | 1018.7 |
| 20260508110018 | 10 | 24 | 3.2 | 6.4 | 0.00 | 0.61 | 0.03 | 80 | 1018.8 |